Weather observations for the past three days for
Newnan, Newnan Coweta County Airport
Imperial (Metric)
Date Time (edt) Wind (mph) Vis. (mi.) Weather Sky Cond. Temperature (ºF) Relative Humidity Wind Chill (°F) Heat Index (°F) Pressure Precipitation (in)
Air Dwpt 6 hour altimeter (in) sea level (mb) 1 hr 3 hr 6 hr
Max. Min.
13 20:55 Calm 10.00 Fair CLR 86.9 64.6 47% 88 30.19 0.0
13 20:35 Calm 10.00 Fair CLR 88.3 63.9 44% 90 30.18 0.0
13 20:15 Calm 10.00 Fair CLR 90.7 62.8 39% 92 30.18 0.0
13 19:55 Calm 10.00 Fair CLR 91.8 61.3 95.2 91 36% 92 30.18 0.0
13 19:35 S 3 10.00 Fair CLR 92.8 59.4 33% 92 30.18 0.0
13 18:55 S 3 10.00 Fair CLR 93.6 59 32% 93 30.18 0.0
13 18:35 S 3 10.00 Fair CLR 93.9 59 31% 93 30.16 0.0
13 18:15 Calm 10.00 Fair CLR 93.4 58.5 31% 93 30.17 0.0
13 17:55 Calm 10.00 Partly Cloudy SCT120 94.1 58.5 30% 93 30.18 0.0
13 17:35 Calm 10.00 Mostly Cloudy BKN120 92.7 59.4 33% 92 30.18 0.0
13 17:15 Calm 10.00 Overcast OVC120 91 61.9 38% 91 30.18 0.0
13 16:55 Calm 10.00 Overcast OVC120 92.3 60.3 34% 92 30.19 0.0
13 16:35 Calm 10.00 Mostly Cloudy BKN110 92.3 58.5 32% 91 30.19 0.0
13 16:15 SW 5 10.00 Fair CLR 93.4 58.8 31% 93 30.19 0.0
13 15:55 Calm 10.00 Partly Cloudy SCT085 SCT110 94.3 59.7 32% 94 30.2 0.0
13 15:35 SE 5 10.00 Overcast SCT070 OVC085 93.2 61 34% 93 30.2 0.0
13 15:15 Calm 10.00 Overcast OVC070 92.3 59.9 34% 92 30.21 0.0
13 14:55 Calm 10.00 Overcast OVC070 91.4 59 34% 91 30.21 0.0
13 14:35 E 8 10.00 Mostly Cloudy BKN070 BKN080 92.8 59.4 33% 92 30.21 0.0
13 14:15 E 6 10.00 Partly Cloudy SCT070 93.6 58.6 31% 93 30.22 0.0
13 13:55 SE 8 10.00 Partly Cloudy SCT080 93.9 59.4 94.6 73.4 32% 93 30.23 0.0
13 13:35 Calm 10.00 Partly Cloudy SCT070 92.7 59 32% 92 30.23 0.0
13 13:15 Calm 10.00 Mostly Cloudy BKN070 91.4 60.4 36% 91 30.24 0.0
13 12:55 SE 7 10.00 Mostly Cloudy BKN060 BKN080 90.5 62.1 39% 91 30.24 0.0
13 12:35 SE 5 10.00 Partly Cloudy SCT060 SCT080 90.5 62.6 39% 91 30.25 0.0
13 12:15 Calm 10.00 Fair CLR 91.2 60.1 35% 91 30.25 0.0
13 11:55 Calm 10.00 Fair CLR 90.3 59.7 36% 90 30.25 0.0
13 11:35 NE 5 10.00 Fair CLR 89.4 63.5 42% 91 30.25 0.0
13 11:15 N 6 10.00 Fair CLR 89.2 63.5 42% 90 30.25 0.0
13 10:55 NE 3 10.00 Partly Cloudy SCT090 88.2 63.7 44% 89 30.26 0.0
13 10:35 Calm 10.00 Fair CLR 87.3 63.7 45% 88 30.26 0.0
13 10:15 Calm 10.00 Fair CLR 85.3 65.1 51% 87 30.26 0.0
13 09:55 Calm 10.00 Fair CLR 84.6 64.8 52% 86 30.25 0.0
13 09:35 NW 5 10.00 Fair CLR 82.8 64.6 54% 84 30.25 0.0
13 08:55 N 5 10.00 Fair CLR 80.8 63.3 55% 82 30.24 0.0
13 08:35 N 5 10.00 Fair CLR 79.2 63.1 58% 81 30.23 0.0
13 08:15 Calm 10.00 Fair CLR 76.3 65.5 69% 78 30.23 0.0
13 07:55 Calm 10.00 Fair CLR 73.6 67.3 74.3 68.4 81% 30.22 0.0
13 07:35 Calm 10.00 Fair CLR 70.7 65.8 85% 30.21 0.0
13 07:15 Calm 10.00 Fair CLR 69.1 66 90% 30.2 0.0
13 06:55 Calm 10.00 Fair CLR 68.7 65.8 91% 30.2 0.0
13 06:35 Calm 10.00 Fair CLR 68.4 65.7 91% 30.19 0.0
13 06:15 Calm 10.00 Fair CLR 70 65.7 86% 30.18 0.0
13 05:55 Calm 10.00 Fair CLR 69.8 65.7 87% 30.18 0.0
13 05:35 Calm 10.00 Fair CLR 70 65.7 86% 30.17 0.0
13 05:15 Calm 10.00 Fair CLR 70.7 65.8 85% 30.16 0.0
13 04:55 Calm 10.00 Fair CLR 70.2 65.5 85% 30.16 0.0
13 04:35 Calm 10.00 Fair CLR 71.8 64.9 79% 30.15 0.0
13 04:15 Calm 10.00 Fair CLR 71.6 65.5 81% 30.15 0.0
13 03:55 Calm 10.00 Fair CLR 72.7 64.8 76% 30.15 0.0
13 03:35 Calm 10.00 Fair CLR 73.6 64.8 74% 30.15 0.0
13 03:15 Calm 10.00 Fair CLR 73.4 64.6 74% 30.15 0.0
13 02:55 Calm 10.00 Fair CLR 73.6 64.4 73% 30.16 0.0
13 02:35 Calm 10.00 Fair CLR 73.4 64.4 74% 30.16 0.0
13 02:15 Calm 10.00 Fair CLR 73.9 64.6 73% 30.16 0.0
13 01:55 Calm 10.00 Fair CLR 74.3 64.9 89.6 73.8 73% 30.17 0.0
13 01:35 Calm 10.00 Fair CLR 74.5 64.8 72% 30.18 0.0
13 01:15 Calm 10.00 Fair CLR 75 64.8 71% 77 30.18 0.0
13 00:55 Calm 10.00 Fair CLR 75.4 64.6 69% 77 30.18 0.0
13 00:35 Calm 10.00 Fair CLR 75.7 64.4 68% 78 30.18 0.0
13 00:15 Calm 10.00 Fair CLR 74.5 66.6 76% 30.18 0.0
12 23:55 Calm 10.00 Fair CLR 75.4 64 68% 77 30.17 0.0
12 23:35 Calm 10.00 Fair CLR 77.9 63.7 62% 80 30.17 0.0
12 23:15 Calm 10.00 Fair CLR 77.9 64.4 63% 80 30.16 0.0
12 22:55 Calm 10.00 Fair CLR 77.2 65.5 67% 79 30.16 0.0
12 22:35 Calm 10.00 Fair CLR 79.2 63.5 59% 81 30.15 0.0
12 22:15 Calm 10.00 Fair CLR 80.6 62.1 53% 82 30.15 0.0
12 21:55 Calm 10.00 Fair CLR 81.3 63.5 55% 83 30.15 0.0
12 21:35 Calm 10.00 Fair CLR 82.2 65.7 57% 84 30.14 0.0
12 21:15 Calm 10.00 Fair CLR 82.4 65.7 57% 84 30.14 0.0
12 20:55 Calm 10.00 Fair CLR 84 64 51% 85 30.14 0.0
12 20:35 Calm 10.00 Fair CLR 86.9 62.6 44% 88 30.13 0.0
12 20:15 Calm 10.00 Partly Cloudy SCT075 88.3 61.9 41% 89 30.13 0.0
12 19:55 Calm 10.00 Overcast OVC075 90 60.1 92.8 88.5 37% 90 30.12 0.0
12 19:35 SE 3 10.00 Overcast OVC075 90.9 57.9 33% 90 30.11 0.0
12 19:15 SE 3 10.00 Mostly Cloudy BKN075 BKN095 90.9 57.9 33% 90 30.11 0.0
12 18:55 SE 3 10.00 Fair CLR 91.2 57.7 32% 90 30.11 0.0
12 18:35 Calm 10.00 Partly Cloudy SCT085 SCT095 91.8 58.3 32% 91 30.1 0.0
12 18:15 E 5 10.00 Overcast BKN070 OVC090 92.5 59 33% 92 30.1 0.0
12 17:55 Calm 10.00 Mostly Cloudy BKN070 BKN090 91.2 57.9 33% 90 30.1 0.0
12 17:35 S 3 10.00 Overcast BKN070 OVC090 91.2 59.9 35% 91 30.1 0.0
12 17:15 SE 3 10.00 Mostly Cloudy BKN070 90.3 57.4 33% 89 30.1 0.0
12 16:55 SW 3 10.00 Mostly Cloudy BKN070 BKN090 90 57.9 34% 89 30.1 0.0
12 16:35 NW 3 10.00 Mostly Cloudy BKN070 BKN090 90.1 57 33% 89 30.1 0.0
12 16:15 Calm 10.00 Mostly Cloudy BKN070 BKN090 91.2 57.7 32% 90 30.11 0.0
12 15:55 SE 3 10.00 Mostly Cloudy SCT070 BKN090 90.7 57.9 33% 90 30.12 0.0
12 15:35 E 3 10.00 Overcast BKN070 OVC090 89.4 57 33% 88 30.12 0.0
12 15:15 NW 5 10.00 Mostly Cloudy BKN090 90 55 31% 88 30.12 0.0
12 14:55 N 7 10.00 Mostly Cloudy SCT070 BKN090 91.4 56.5 31% 90 30.12 0.0
12 14:35 Calm 10.00 Partly Cloudy SCT065 SCT090 91.8 57.2 31% 90 30.13 0.0
12 14:15 Calm 10.00 Partly Cloudy SCT065 SCT090 90.3 56.1 31% 89 30.13 0.0
12 13:55 N 3 10.00 Mostly Cloudy BKN065 BKN085 88.3 57.4 90.7 72.7 35% 87 30.14 0.0
12 13:35 NE 6 10.00 Mostly Cloudy SCT065 BKN085 88.9 57.7 35% 88 30.14 0.0
12 13:15 N 5 10.00 Mostly Cloudy BKN065 BKN080 89.1 58.1 35% 88 30.15 0.0
12 12:55 N 6 10.00 Overcast BKN055 OVC080 89.2 57.7 35% 88 30.15 0.0
12 12:35 NW 6 10.00 Mostly Cloudy BKN055 BKN070 89.8 60.1 37% 89 30.15 0.0
12 12:15 N 5 10.00 Partly Cloudy SCT055 90.7 60.4 36% 90 30.15 0.0
12 11:55 N 3 10.00 Partly Cloudy SCT055 88.3 60.1 39% 88 30.15 0.0
12 11:35 NW 5 10.00 Fair CLR 87.8 59.5 39% 87 30.15 0.0
12 11:15 Calm 10.00 Fair CLR 86.2 60.1 41% 86 30.14 0.0
12 10:55 Calm 10.00 Fair CLR 85.8 60.4 42% 86 30.14 0.0
12 10:35 Calm 10.00 Fair CLR 85.5 61.2 44% 86 30.14 0.0
12 10:15 Calm 10.00 Fair CLR 84.2 61.2 46% 85 30.14 0.0
12 09:55 Calm 10.00 Fair CLR 83.3 62.2 49% 84 30.13 0.0
12 09:35 NE 3 10.00 Fair CLR 81.3 62.6 53% 82 30.13 0.0
12 09:15 NE 3 10.00 Fair CLR 80.1 63 56% 81 30.13 0.0
12 08:55 N 5 10.00 Fair CLR 78.4 61.9 57% 80 30.12 0.0
12 08:35 N 3 10.00 Fair CLR 77.2 63 62% 79 30.11 0.0
12 08:15 Calm 10.00 Fair CLR 75.9 61.7 61% 78 30.11 0.0
12 07:55 Calm 10.00 Fair CLR 73.2 64.6 73.2 66.6 74% 30.11 0.0
12 07:35 Calm 10.00 Fair CLR 70.2 63.3 79% 30.1 0.0
12 07:15 Calm 10.00 Fair CLR 66.9 63.5 89% 30.1 0.0
12 06:55 Calm 10.00 Fair CLR 67.6 63 85% 30.09 0.0
12 06:35 Calm 10.00 Fair CLR 70.7 62.2 75% 30.09 0.0
12 06:15 Calm 10.00 Fair CLR 70.3 62.2 76% 30.08 0.0
12 05:55 Calm 10.00 Fair CLR 70.7 62.6 76% 30.08 0.0
12 05:35 Calm 10.00 Fair CLR 69.8 63 79% 30.08 0.0
12 05:15 Calm 10.00 Fair CLR 69.6 63 79% 30.08 0.0
12 04:55 Calm 10.00 Fair CLR 69.4 63.5 82% 30.07 0.0
12 04:35 Calm 10.00 Fair CLR 67.3 62.8 86% 30.07 0.0
12 04:15 Calm 10.00 Fair CLR 68.9 63.5 83% 30.07 0.0
12 03:55 Calm 10.00 Fair CLR 67.6 63.7 87% 30.06 0.0
12 03:35 Calm 10.00 Fair CLR 68 63.7 86% 30.06 0.0
12 03:15 Calm 10.00 Fair CLR 68.9 63.9 84% 30.07 0.0
12 02:55 Calm 10.00 Fair CLR 68.9 63.7 84% 30.07 0.0
12 02:35 Calm 10.00 Fair CLR 70.3 63 78% 30.06 0.0
12 02:15 Calm 10.00 Fair CLR 71.2 62.8 75% 30.07 0.0
12 01:55 Calm 10.00 Fair CLR 72.1 62.6 87.6 72 72% 30.07 0.0
12 01:35 Calm 10.00 Fair CLR 72.5 62.4 71% 30.07 0.0
12 01:15 Calm 10.00 Fair CLR 72.5 62.6 71% 30.08 0.0
12 00:55 Calm 10.00 Fair CLR 72.1 63 73% 30.08 0.0
12 00:35 Calm 10.00 Fair CLR 72.5 63 72% 30.08 0.0
12 00:15 Calm 10.00 Fair CLR 72.7 63 72% 30.08 0.0
11 23:55 Calm 10.00 Fair CLR 74.1 61.5 65% 30.08 0.0
11 23:35 Calm 10.00 Fair CLR 74.3 62.1 66% 30.08 0.0
11 23:15 Calm 10.00 Partly Cloudy SCT070 73.8 63.5 70% 30.07 0.0
11 22:55 Calm 10.00 Mostly Cloudy BKN070 74.5 63 67% 30.07 0.0
11 22:35 Calm 10.00 Mostly Cloudy BKN070 74.5 63.1 68% 30.07 0.0
11 22:15 Calm 10.00 Partly Cloudy SCT070 77.5 60.8 56% 79 30.06 0.0
11 21:55 Calm 10.00 Partly Cloudy SCT070 79.2 59.7 51% 80 30.06 0.0
11 21:35 Calm 10.00 Partly Cloudy SCT070 81.3 58.6 46% 82 30.06 0.0
11 21:15 NW 3 10.00 Partly Cloudy SCT065 82.9 58.1 43% 83 30.05 0.0
11 20:55 NW 3 10.00 Partly Cloudy SCT065 84 57.4 40% 83 30.05 0.0
11 20:35 NW 5 10.00 Fair CLR 86 55.9 36% 85 30.05 0.0
11 20:15 NW 5 10.00 Fair CLR 86.9 55.9 35% 85 30.04 0.0
11 19:55 NW 7 10.00 Fair CLR 87.8 55.8 90.7 87.1 34% 86 30.04 0.0
11 19:35 NW 8 10.00 Fair CLR 88.2 55.9 34% 87 30.04 0.0
11 19:15 N 9 10.00 Partly Cloudy SCT070 88.9 56.1 33% 87 30.03 0.0
11 18:55 NW 7 10.00 Partly Cloudy SCT070 89.1 55.9 33% 87 30.04 0.0
11 18:35 NW 9 10.00 Mostly Cloudy BKN070 89.6 55.9 32% 88 30.03 0.0
11 18:15 N 8 10.00 Partly Cloudy SCT070 89.6 56.1 32% 88 30.03 0.0
11 17:55 NW 3 10.00 Partly Cloudy SCT070 90.1 55.4 31% 88 30.03 0.0
11 17:35 N 7 G 10 10.00 Partly Cloudy SCT070 88.5 54.9 32% 87 30.04 0.0
11 17:15 N 9 10.00 Fair CLR 90 55.6 31% 88 30.04 0.0
11 16:55 N 7 10.00 Partly Cloudy SCT070 89.2 53.4 30% 87 30.04 0.0
11 16:35 N 13 G 18 10.00 Partly Cloudy SCT070 89.2 55.2 32% 87 30.04 0.0
11 16:15 N 10 G 16 10.00 Partly Cloudy SCT065 89.4 55 31% 88 30.04 0.0
11 15:55 N 8 10.00 Partly Cloudy SCT065 89.2 54.5 31% 87 30.05 0.0
11 15:35 N 9 G 18 10.00 Fair CLR 90.1 54 29% 88 30.05 0.0
11 15:15 N 12 10.00 Fair CLR 89.4 53.2 29% 87 30.05 0.0
11 14:55 W 8 10.00 Fair CLR 88.5 52.9 30% 86 30.05 0.0
11 14:35 NW 9 10.00 Fair CLR 88.3 55.6 33% 87 30.06 0.0
11 14:15 NE 5 G 16 10.00 Fair CLR 87.3 55 33% 86 30.06 0.0
11 13:55 N 8 G 17 10.00 Fair CLR 86.7 55.2 87.6 71.1 34% 85 30.06 0.0
11 13:35 N 13 G 18 10.00 Fair CLR 86.9 54.9 34% 85 30.06 0.0
11 13:15 NW 8 G 18 10.00 Fair CLR 86.2 54.3 34% 84 30.08 0.0
11 12:55 N 10 G 16 10.00 Fair CLR 85.5 56.8 38% 84 30.08 0.0
11 12:35 N 7 10.00 Fair CLR 85.3 57.2 38% 84 30.08 0.0
11 12:15 N 12 G 17 10.00 Fair CLR 85.5 56.8 38% 84 30.08 0.0
11 11:55 N 10 G 16 10.00 Fair CLR 84.4 57.7 40% 84 30.08 0.0
11 11:35 N 12 10.00 Fair CLR 83.7 58.8 43% 83 30.08 0.0
11 11:15 N 10 G 16 10.00 Fair CLR 82.4 59.2 45% 83 30.08 0.0
11 10:55 N 14 10.00 Fair CLR 82 60.1 47% 82 30.08 0.0
11 10:35 N 9 10.00 Fair CLR 80.8 60.3 50% 81 30.08 0.0
11 10:15 N 9 G 16 10.00 Fair CLR 79.3 59.9 52% 80 30.09 0.0
11 09:55 N 13 10.00 Fair CLR 78.8 60.3 53% 80 30.08 0.0
11 09:35 N 10 10.00 Fair CLR 77.7 61.2 57% 79 30.08 0.0
11 09:15 N 9 10.00 Fair CLR 75.9 61.3 61% 78 30.08 0.0
11 08:55 N 7 10.00 Fair CLR 74.7 61.3 63% 30.08 0.0
11 08:35 N 8 10.00 Fair CLR 73.6 61.9 67% 30.07 0.0
11 08:15 N 7 10.00 Fair CLR 72.1 61.9 70% 30.06 0.0
11 07:55 N 8 10.00 Fair CLR 71.1 61.9 72.5 69.3 73% 30.06 0.0
11 07:35 N 6 10.00 Fair CLR 70.7 61.9 74% 30.06 0.0
11 07:15 N 7 10.00 Fair CLR 69.8 62.6 78% 30.05 0.0
11 06:55 NW 6 10.00 Fair CLR 69.3 62.8 80% 30.05 0.0
11 06:35 NW 5 10.00 Fair CLR 69.6 62.6 78% 30.05 0.0
11 06:15 NW 5 10.00 Fair CLR 70 63.1 79% 30.05 0.0
11 05:55 NW 5 10.00 Fair CLR 70 63.1 79% 30.05 0.0
11 05:35 NW 6 10.00 Fair CLR 70.2 63 78% 30.05 0.0
11 05:15 NW 7 10.00 Fair CLR 70.3 63.3 79% 30.04 0.0
11 04:55 NW 6 10.00 Fair CLR 70.7 63.5 78% 30.03 0.0
11 04:35 NW 6 10.00 Fair CLR 71.2 63.5 77% 30.04 0.0
11 04:15 NW 6 10.00 Fair CLR 71.8 63.5 75% 30.03 0.0
11 03:55 NW 7 10.00 Fair CLR 71.6 64.2 78% 30.03 0.0
11 03:35 NW 7 10.00 Fair CLR 71.4 64.8 80% 30.03 0.0
11 03:15 NW 6 10.00 Fair CLR 71.6 65.3 81% 30.03 0.0
11 02:55 NW 3 10.00 Fair CLR 71.6 65.1 80% 30.03 0.0
11 02:35 NW 3 10.00 Fair CLR 72 65.3 80% 30.03 0.0
11 02:15 NW 3 10.00 Fair CLR 72.1 65.3 79% 30.03 0.0
11 01:55 NW 5 10.00 Fair CLR 72.1 65.5 84.2 72.1 80% 30.03 0.0
11 01:35 NW 3 10.00 Fair CLR 72.5 65.3 78% 30.04 0.0
11 01:15 NW 5 10.00 Fair CLR 73.2 65.3 76% 30.04 0.0
11 00:55 NW 3 10.00 Fair CLR 73 65.3 77% 30.04 0.0
11 00:35 W 3 10.00 Fair CLR 72.5 65.7 79% 30.04 0.0
11 00:15 Calm 10.00 Fair CLR 73.4 65.3 76% 30.04 0.0
10 23:55 Calm 10.00 Fair CLR 74.3 64.9 73% 30.04 0.0
10 23:35 NW 3 10.00 Fair CLR 74.1 64.9 73% 30.04 0.0
10 23:15 Calm 10.00 Fair CLR 74.5 64.8 72% 30.04 0.0
10 22:55 NW 3 10.00 Fair CLR 75.9 64.4 68% 78 30.03 0.0
10 22:35 NW 5 10.00 Fair CLR 77.4 63.5 62% 79 30.03 0.0
10 22:15 NW 3 10.00 Fair CLR 77.4 63.9 63% 79 30.03 0.0
10 21:55 NW 3 10.00 Fair CLR 78.4 63.9 61% 80 30.03 0.0
10 21:35 NW 3 10.00 Fair CLR 78.8 63.5 60% 80 30.03 0.0
10 21:15 NW 5 10.00 Fair CLR 79.9 63 56% 81 30.02 0.0
Date Time (edt) Wind (mph) Vis. (mi.) Weather Sky Cond. Air Dwpt Max. Min. Relative Humidity Wind Chill (°F) Heat Index (°F) altimeter (in) sea level (mb) 1 hr 3 hr 6 hr
6 hour
Temperature (ºF) Pressure Precipitation (in)